Location: Unspecified
(22.6800°N, 112.2000°E)
Time: 10:44:34
(UTC+08:00)

S-56A Canister/Altair - Pass Details

Date: 29 July 2021
Orbit: 632 x 2500 km, 38.9° (Epoch: 27 September)

Event Time Altitude Azimuth Distance (km) Brightness Sun altitude
Rises 12:39:16 0° 200° (SSW) 4,670 11.6 86.0°
Reaches altitude 10° 12:42:28 10° 190° (S) 3,945 11.4 85.9°
Maximum altitude 12:51:56 34° 130° (SE) 3,081 11.1 84.8°
Drops below altitude 10° 13:04:00 10° 73° (ENE) 5,078 11.8 82.7°
Sets 13:08:43 0° 66° (ENE) 6,166 12.1 81.7°
